Location: Grand Lay
(47.3253°N, 0.9468°E)
Time: 19:51:01
(UTC+00:00)

Gbstr 26 Del rocket - Pass Details

Date: 15 April 2026
Orbit: 490 x 1216 km, 51.8° (Epoch: 13 May)

Event Time Altitude Azimuth Distance (km) Brightness Sun altitude
Exits shadow 03:02:02 22° 305° (NW) 1,115 4.2 -19.6°
Maximum altitude 03:04:00 41° 3° (N) 718 3.7 -19.4°
Drops below altitude 10° 03:07:35 10° 76° (ENE) 1,696 6.3 -18.9°
Sets 03:09:52 0° 84° (E) 2,614 7.2 -18.6°
